Year,Month,Day,Hour,Minute,Value (Times are PST for temperature in C)
2016,05,25,00,00,10.90
2016,05,25,00,01,10.90
2016,05,25,00,02,10.80
2016,05,25,00,03,10.80
2016,05,25,00,04,10.80
2016,05,25,00,05,10.80
2016,05,25,00,06,10.80
2016,05,25,00,07,10.80
2016,05,25,00,08,10.80
2016,05,25,00,09,10.80
2016,05,25,00,10,10.80
2016,05,25,00,11,10.80
2016,05,25,00,12,10.80
2016,05,25,00,13,10.70
2016,05,25,00,14,10.70
2016,05,25,00,15,10.70
2016,05,25,00,16,10.70
2016,05,25,00,17,10.70
2016,05,25,00,18,10.70
2016,05,25,00,19,10.60
2016,05,25,00,20,10.60
2016,05,25,00,21,10.60
2016,05,25,00,22,10.60
2016,05,25,00,23,10.60
2016,05,25,00,24,10.60
2016,05,25,00,25,10.60
2016,05,25,00,26,10.60
2016,05,25,00,27,10.60
2016,05,25,00,28,10.60
2016,05,25,00,29,10.60
2016,05,25,00,30,10.60
2016,05,25,00,31,10.60
2016,05,25,00,32,10.60
2016,05,25,00,33,10.60
2016,05,25,00,34,10.60
2016,05,25,00,35,10.60
2016,05,25,00,36,10.50
2016,05,25,00,37,10.50
2016,05,25,00,38,10.50
2016,05,25,00,39,10.50
2016,05,25,00,40,10.50
2016,05,25,00,41,10.50
2016,05,25,00,42,10.50
2016,05,25,00,43,10.40
2016,05,25,00,44,10.40
2016,05,25,00,45,10.40
2016,05,25,00,46,10.40
2016,05,25,00,47,10.40
2016,05,25,00,48,10.40
2016,05,25,00,49,10.40
2016,05,25,00,50,10.40
2016,05,25,00,51,10.40
2016,05,25,00,52,10.40
2016,05,25,00,53,10.40
2016,05,25,00,54,10.30
2016,05,25,00,55,10.30
2016,05,25,00,56,10.30
2016,05,25,00,57,10.30
2016,05,25,00,58,10.30
2016,05,25,00,59,10.30
2016,05,25,01,00,10.30
2016,05,25,01,01,10.30
2016,05,25,01,02,10.30
2016,05,25,01,03,10.30
2016,05,25,01,04,10.30
2016,05,25,01,05,10.30
2016,05,25,01,06,10.30
2016,05,25,01,07,10.30
2016,05,25,01,08,10.20
2016,05,25,01,09,10.20
2016,05,25,01,10,10.20
2016,05,25,01,11,10.20
2016,05,25,01,12,10.20
2016,05,25,01,13,10.20
2016,05,25,01,14,10.20
2016,05,25,01,15,10.20
2016,05,25,01,16,10.10
2016,05,25,01,17,10.10
2016,05,25,01,18,10.10
2016,05,25,01,19,10.10
2016,05,25,01,20,10.10
2016,05,25,01,21,10.10
2016,05,25,01,22,10.10
2016,05,25,01,23,10.10
2016,05,25,01,24,10.10
2016,05,25,01,25,10.10
2016,05,25,01,26,10.00
2016,05,25,01,27,10.00
2016,05,25,01,28,10.00
2016,05,25,01,29,10.00
2016,05,25,01,30,10.00
2016,05,25,01,31,10.00
2016,05,25,01,32,9.90
2016,05,25,01,33,9.90
2016,05,25,01,34,9.90
2016,05,25,01,35,9.90
2016,05,25,01,36,9.90
2016,05,25,01,37,9.90
2016,05,25,01,38,9.90
2016,05,25,01,39,9.90
2016,05,25,01,40,9.90
2016,05,25,01,41,9.90
2016,05,25,01,42,9.80
2016,05,25,01,43,9.80
2016,05,25,01,44,9.80
2016,05,25,01,45,9.80
2016,05,25,01,46,9.80
2016,05,25,01,47,9.80
2016,05,25,01,48,9.80
2016,05,25,01,49,9.80
2016,05,25,01,50,9.80
2016,05,25,01,51,9.80
2016,05,25,01,52,9.80
2016,05,25,01,53,9.80
2016,05,25,01,54,9.80
2016,05,25,01,55,9.70
2016,05,25,01,56,9.70
2016,05,25,01,57,9.70
2016,05,25,01,58,9.70
2016,05,25,01,59,9.70
2016,05,25,02,00,9.70
2016,05,25,02,01,9.70
2016,05,25,02,02,9.70
2016,05,25,02,03,9.80
2016,05,25,02,04,9.80
2016,05,25,02,05,9.80
2016,05,25,02,06,9.80
2016,05,25,02,07,9.80
2016,05,25,02,08,9.80
2016,05,25,02,09,9.80
2016,05,25,02,10,9.80
2016,05,25,02,11,9.80
2016,05,25,02,12,9.80
2016,05,25,02,13,9.80
2016,05,25,02,14,9.80
2016,05,25,02,15,9.80
2016,05,25,02,16,9.80
2016,05,25,02,17,9.80
2016,05,25,02,18,9.80
2016,05,25,02,19,9.80
2016,05,25,02,20,9.80
2016,05,25,02,21,9.80
2016,05,25,02,22,9.80
2016,05,25,02,23,9.80
2016,05,25,02,24,9.80
2016,05,25,02,25,9.80
2016,05,25,02,26,9.80
2016,05,25,02,27,9.80
2016,05,25,02,28,9.90
2016,05,25,02,29,9.90
2016,05,25,02,30,9.90
2016,05,25,02,31,9.90
2016,05,25,02,32,9.90
2016,05,25,02,33,10.00
2016,05,25,02,34,9.90
2016,05,25,02,35,9.90
2016,05,25,02,36,10.00
2016,05,25,02,37,10.00
2016,05,25,02,38,10.00
2016,05,25,02,39,10.00
2016,05,25,02,40,10.00
2016,05,25,02,41,10.00
2016,05,25,02,42,10.00
2016,05,25,02,43,10.00
2016,05,25,02,44,10.00
2016,05,25,02,45,10.00
2016,05,25,02,46,10.00
2016,05,25,02,47,10.10
2016,05,25,02,48,10.10
2016,05,25,02,49,10.10
2016,05,25,02,50,10.10
2016,05,25,02,51,10.10
2016,05,25,02,52,10.10
2016,05,25,02,53,10.10
2016,05,25,02,54,10.20
2016,05,25,02,55,10.20
2016,05,25,02,56,10.20
2016,05,25,02,57,10.20
2016,05,25,02,58,10.20
2016,05,25,02,59,10.20
2016,05,25,03,00,10.20
2016,05,25,03,01,10.20
2016,05,25,03,02,10.20
2016,05,25,03,03,10.20
2016,05,25,03,04,10.20
2016,05,25,03,05,10.30
2016,05,25,03,06,10.30
2016,05,25,03,07,10.30
2016,05,25,03,08,10.30
2016,05,25,03,09,10.30
2016,05,25,03,10,10.30
2016,05,25,03,11,10.30
2016,05,25,03,12,10.30
2016,05,25,03,13,10.30
2016,05,25,03,14,10.30
2016,05,25,03,15,10.30
2016,05,25,03,16,10.30
2016,05,25,03,17,10.30
2016,05,25,03,18,10.30
2016,05,25,03,19,10.30
2016,05,25,03,20,10.30
2016,05,25,03,21,10.40
2016,05,25,03,22,10.40
2016,05,25,03,23,10.40
2016,05,25,03,24,10.40
2016,05,25,03,25,10.40
2016,05,25,03,26,10.40
2016,05,25,03,27,10.40
2016,05,25,03,28,10.40
2016,05,25,03,29,10.40
2016,05,25,03,30,10.50
2016,05,25,03,31,10.50
2016,05,25,03,32,10.50
2016,05,25,03,33,10.50
2016,05,25,03,34,10.50
2016,05,25,03,35,10.60
2016,05,25,03,36,10.60
2016,05,25,03,37,10.60
2016,05,25,03,38,10.60
2016,05,25,03,39,10.60
2016,05,25,03,40,10.60
2016,05,25,03,41,10.60
2016,05,25,03,42,10.60
2016,05,25,03,43,10.60
2016,05,25,03,44,10.60
2016,05,25,03,45,10.70
2016,05,25,03,46,10.70
2016,05,25,03,47,10.70
2016,05,25,03,48,10.70
2016,05,25,03,49,10.70
2016,05,25,03,50,10.70
2016,05,25,03,51,10.70
2016,05,25,03,52,10.70
2016,05,25,03,53,10.70
2016,05,25,03,54,10.70
2016,05,25,03,55,10.70
2016,05,25,03,56,10.70
2016,05,25,03,57,10.70
2016,05,25,03,58,10.70
2016,05,25,03,59,10.70
2016,05,25,04,00,10.70
2016,05,25,04,01,10.70
2016,05,25,04,02,10.70
2016,05,25,04,03,10.70
2016,05,25,04,04,10.70
2016,05,25,04,05,10.70
2016,05,25,04,06,10.70
2016,05,25,04,07,10.70
2016,05,25,04,08,10.70
2016,05,25,04,09,10.80
2016,05,25,04,10,10.80
2016,05,25,04,11,10.80
2016,05,25,04,12,10.80
2016,05,25,04,13,10.90
2016,05,25,04,14,10.90
2016,05,25,04,15,11.00
2016,05,25,04,16,11.20
2016,05,25,04,17,11.30
2016,05,25,04,18,11.40
2016,05,25,04,19,11.40
2016,05,25,04,20,11.50
2016,05,25,04,21,11.60
2016,05,25,04,22,11.60
2016,05,25,04,23,11.60
2016,05,25,04,24,11.70
2016,05,25,04,25,11.70
2016,05,25,04,26,11.70
2016,05,25,04,27,11.80
2016,05,25,04,28,11.80
2016,05,25,04,29,11.80
2016,05,25,04,30,11.80
2016,05,25,04,31,11.80
2016,05,25,04,32,11.80
2016,05,25,04,33,11.90
2016,05,25,04,34,11.90
2016,05,25,04,35,11.90
2016,05,25,04,36,11.90
2016,05,25,04,37,12.00
2016,05,25,04,38,12.00
2016,05,25,04,39,12.00
2016,05,25,04,40,12.00
2016,05,25,04,41,12.10
2016,05,25,04,42,12.10
2016,05,25,04,43,12.10
2016,05,25,04,44,12.10
2016,05,25,04,45,12.20
2016,05,25,04,46,12.30
2016,05,25,04,47,12.30
2016,05,25,04,48,12.40
2016,05,25,04,49,12.40
2016,05,25,04,50,12.40
2016,05,25,04,51,12.50
2016,05,25,04,52,12.50
2016,05,25,04,53,12.50
2016,05,25,04,54,12.60
2016,05,25,04,55,12.60
2016,05,25,04,56,12.60
2016,05,25,04,57,12.70
2016,05,25,04,58,12.70
2016,05,25,04,59,12.70
2016,05,25,05,00,12.80
2016,05,25,05,01,12.80
2016,05,25,05,02,12.80
2016,05,25,05,03,12.90
2016,05,25,05,04,12.90
2016,05,25,05,05,12.90
2016,05,25,05,06,13.00
2016,05,25,05,07,13.00
2016,05,25,05,08,13.10
2016,05,25,05,09,13.10
2016,05,25,05,10,13.10
2016,05,25,05,11,13.10
2016,05,25,05,12,13.10
2016,05,25,05,13,13.10
2016,05,25,05,14,13.10
2016,05,25,05,15,13.10
2016,05,25,05,16,13.20
2016,05,25,05,17,13.20
2016,05,25,05,18,13.20
2016,05,25,05,19,13.20
2016,05,25,05,20,13.20
2016,05,25,05,21,13.20
2016,05,25,05,22,13.20
2016,05,25,05,23,13.30
2016,05,25,05,24,13.30
2016,05,25,05,25,13.30
2016,05,25,05,26,13.30
2016,05,25,05,27,13.30
2016,05,25,05,28,13.30
2016,05,25,05,29,13.30
2016,05,25,05,30,13.30
2016,05,25,05,31,13.30
2016,05,25,05,32,13.30
2016,05,25,05,33,13.30
2016,05,25,05,34,13.30
2016,05,25,05,35,13.30
2016,05,25,05,36,13.30
2016,05,25,05,37,13.30
2016,05,25,05,38,13.30
2016,05,25,05,39,13.30
2016,05,25,05,40,13.20
2016,05,25,05,41,13.20
2016,05,25,05,42,13.20
2016,05,25,05,43,13.20
2016,05,25,05,44,13.20
2016,05,25,05,45,13.20
2016,05,25,05,46,13.20
2016,05,25,05,47,13.20
2016,05,25,05,48,13.20
2016,05,25,05,49,13.20
2016,05,25,05,50,13.20
2016,05,25,05,51,13.20
2016,05,25,05,52,13.20
2016,05,25,05,53,13.20
2016,05,25,05,54,13.20
2016,05,25,05,55,13.20
2016,05,25,05,56,13.20
2016,05,25,05,57,13.20
2016,05,25,05,58,13.20
2016,05,25,05,59,13.20
2016,05,25,06,00,13.20
2016,05,25,06,01,13.20
2016,05,25,06,02,13.20
2016,05,25,06,03,13.20
2016,05,25,06,04,13.20
2016,05,25,06,05,13.20
2016,05,25,06,06,13.20
2016,05,25,06,07,13.20
2016,05,25,06,08,13.20
2016,05,25,06,09,13.20
2016,05,25,06,10,13.10
2016,05,25,06,11,13.10
2016,05,25,06,12,13.10
2016,05,25,06,13,13.10
2016,05,25,06,14,13.10
2016,05,25,06,15,13.10
2016,05,25,06,16,13.10
2016,05,25,06,17,13.10
2016,05,25,06,18,13.10
2016,05,25,06,19,13.10
2016,05,25,06,20,13.10
2016,05,25,06,21,13.10
2016,05,25,06,22,13.10
2016,05,25,06,23,13.10
2016,05,25,06,24,13.10
2016,05,25,06,25,13.20
2016,05,25,06,26,13.20
2016,05,25,06,27,13.20
2016,05,25,06,28,13.20
2016,05,25,06,29,13.20
2016,05,25,06,30,13.20
2016,05,25,06,31,13.20
2016,05,25,06,32,13.20
2016,05,25,06,33,13.20
2016,05,25,06,34,13.20
2016,05,25,06,35,13.20
2016,05,25,06,36,13.30
2016,05,25,06,37,13.30
2016,05,25,06,38,13.30
2016,05,25,06,39,13.30
2016,05,25,06,40,13.30
2016,05,25,06,41,13.30
2016,05,25,06,42,13.30
2016,05,25,06,43,13.30
2016,05,25,06,44,13.40
2016,05,25,06,45,13.40
2016,05,25,06,46,13.40
2016,05,25,06,47,13.40
2016,05,25,06,48,13.40
2016,05,25,06,49,13.40
2016,05,25,06,50,13.50
2016,05,25,06,51,13.50
2016,05,25,06,52,13.50
2016,05,25,06,53,13.50
2016,05,25,06,54,13.60
2016,05,25,06,55,13.60
2016,05,25,06,56,13.60
2016,05,25,06,57,13.60
2016,05,25,06,58,13.70
2016,05,25,06,59,13.70
2016,05,25,07,00,13.70
2016,05,25,07,01,13.70
2016,05,25,07,02,13.70
2016,05,25,07,03,13.70
2016,05,25,07,04,13.70
2016,05,25,07,05,13.80
2016,05,25,07,06,13.80
2016,05,25,07,07,13.80
2016,05,25,07,08,13.80
2016,05,25,07,09,13.80
2016,05,25,07,10,13.80
2016,05,25,07,11,13.90
2016,05,25,07,12,13.90
2016,05,25,07,13,13.90
2016,05,25,07,14,13.90
2016,05,25,07,15,13.90
2016,05,25,07,16,13.90
2016,05,25,07,17,14.00
2016,05,25,07,18,14.00
2016,05,25,07,19,14.00
2016,05,25,07,20,14.00
2016,05,25,07,21,14.00
2016,05,25,07,22,14.10
2016,05,25,07,23,14.10
2016,05,25,07,24,14.10
2016,05,25,07,25,14.10
2016,05,25,07,26,14.10
2016,05,25,07,27,14.10
2016,05,25,07,28,14.10
2016,05,25,07,29,14.10
2016,05,25,07,30,14.10
2016,05,25,07,31,14.10
2016,05,25,07,32,14.10
2016,05,25,07,33,14.10
2016,05,25,07,34,14.10
2016,05,25,07,35,14.10
2016,05,25,07,36,14.10
2016,05,25,07,37,14.10
2016,05,25,07,38,14.10
2016,05,25,07,39,14.10
2016,05,25,07,40,14.20
2016,05,25,07,41,14.20
2016,05,25,07,42,14.20
2016,05,25,07,43,14.20
2016,05,25,07,44,14.20
2016,05,25,07,45,14.20
2016,05,25,07,46,14.20
2016,05,25,07,47,14.20
2016,05,25,07,48,14.20
2016,05,25,07,49,14.20
2016,05,25,07,50,14.30
2016,05,25,07,51,14.30
2016,05,25,07,52,14.30
2016,05,25,07,53,14.30
2016,05,25,07,54,14.30
2016,05,25,07,55,14.30
2016,05,25,07,56,14.30
2016,05,25,07,57,14.30
2016,05,25,07,58,14.30
2016,05,25,07,59,14.30
2016,05,25,08,00,14.30
2016,05,25,08,01,14.40
2016,05,25,08,02,14.40
2016,05,25,08,03,14.40
2016,05,25,08,04,14.40
2016,05,25,08,05,14.40
2016,05,25,08,06,14.40
2016,05,25,08,07,14.40
2016,05,25,08,08,14.40
2016,05,25,08,09,14.40
2016,05,25,08,10,14.50
2016,05,25,08,11,14.50
2016,05,25,08,12,14.50
2016,05,25,08,13,14.50
2016,05,25,08,14,14.50
2016,05,25,08,15,14.50
2016,05,25,08,16,14.50
2016,05,25,08,17,14.50
2016,05,25,08,18,14.50
2016,05,25,08,19,14.40
2016,05,25,08,20,14.40
2016,05,25,08,21,14.40
2016,05,25,08,22,14.40
2016,05,25,08,23,14.40
2016,05,25,08,24,14.40
2016,05,25,08,25,14.30
2016,05,25,08,26,14.30
2016,05,25,08,27,14.30
2016,05,25,08,28,14.30
2016,05,25,08,29,14.30
2016,05,25,08,30,14.30
2016,05,25,08,31,14.30
2016,05,25,08,32,14.30
2016,05,25,08,33,14.30
2016,05,25,08,34,14.30
2016,05,25,08,35,14.30
2016,05,25,08,36,14.30
2016,05,25,08,37,14.40
2016,05,25,08,38,14.40
2016,05,25,08,39,14.40
2016,05,25,08,40,14.40
2016,05,25,08,41,14.40
2016,05,25,08,42,14.40
2016,05,25,08,43,14.40
2016,05,25,08,44,14.40
2016,05,25,08,45,14.40
2016,05,25,08,46,14.40
2016,05,25,08,47,14.40
2016,05,25,08,48,14.40
2016,05,25,08,49,14.50
2016,05,25,08,50,14.50
2016,05,25,08,51,14.50
2016,05,25,08,52,14.50
2016,05,25,08,53,14.60
2016,05,25,08,54,14.60
2016,05,25,08,55,14.60
2016,05,25,08,56,14.70
2016,05,25,08,57,14.70
2016,05,25,08,58,14.70
2016,05,25,08,59,14.70
2016,05,25,09,00,14.80
2016,05,25,09,01,14.80
2016,05,25,09,02,14.80
2016,05,25,09,03,14.80
2016,05,25,09,04,14.80
2016,05,25,09,05,14.90
2016,05,25,09,06,14.90
2016,05,25,09,07,15.00
2016,05,25,09,08,15.00
2016,05,25,09,09,15.00
2016,05,25,09,10,15.10
2016,05,25,09,11,15.10
2016,05,25,09,12,15.10
2016,05,25,09,13,15.10
2016,05,25,09,14,15.10
2016,05,25,09,15,15.20
2016,05,25,09,16,15.20
2016,05,25,09,17,15.20
2016,05,25,09,18,15.20
2016,05,25,09,19,15.10
2016,05,25,09,20,15.10
2016,05,25,09,21,15.10
2016,05,25,09,22,15.10
2016,05,25,09,23,15.20
2016,05,25,09,24,15.20
2016,05,25,09,25,15.20
2016,05,25,09,26,15.10
2016,05,25,09,27,15.10
2016,05,25,09,28,15.10
2016,05,25,09,29,15.20
2016,05,25,09,30,15.20
2016,05,25,09,31,15.20
2016,05,25,09,32,15.20
2016,05,25,09,33,15.20
2016,05,25,09,34,15.20
2016,05,25,09,35,15.20
2016,05,25,09,36,15.20
2016,05,25,09,37,15.10
2016,05,25,09,38,15.20
2016,05,25,09,39,15.10
2016,05,25,09,40,15.20
2016,05,25,09,41,15.20
2016,05,25,09,42,15.20
2016,05,25,09,43,15.20
2016,05,25,09,44,15.30
2016,05,25,09,45,15.30
2016,05,25,09,46,15.30
2016,05,25,09,47,15.40
2016,05,25,09,48,15.50
2016,05,25,09,49,15.50
2016,05,25,09,50,15.60
2016,05,25,09,51,15.60
2016,05,25,09,52,15.60
2016,05,25,09,53,15.70
2016,05,25,09,54,15.70
2016,05,25,09,55,15.70
2016,05,25,09,56,15.70
2016,05,25,09,57,15.80
2016,05,25,09,58,15.80
2016,05,25,09,59,15.90
2016,05,25,10,00,16.00
2016,05,25,10,01,16.00
2016,05,25,10,02,16.10
2016,05,25,10,03,16.10
2016,05,25,10,04,16.20
2016,05,25,10,05,16.20
2016,05,25,10,06,16.20
2016,05,25,10,07,16.30
2016,05,25,10,08,16.30
2016,05,25,10,09,16.40
2016,05,25,10,10,16.50
2016,05,25,10,11,16.60
2016,05,25,10,12,16.70
2016,05,25,10,13,16.80
2016,05,25,10,14,16.90
2016,05,25,10,15,17.00
2016,05,25,10,16,17.00
2016,05,25,10,17,17.10
2016,05,25,10,18,17.20
2016,05,25,10,19,17.30
2016,05,25,10,20,17.30
2016,05,25,10,21,17.30
2016,05,25,10,22,17.30
2016,05,25,10,23,17.20
2016,05,25,10,24,17.10
2016,05,25,10,25,17.10
2016,05,25,10,26,17.00
2016,05,25,10,27,17.00
2016,05,25,10,28,17.10
2016,05,25,10,29,17.10
2016,05,25,10,30,17.10
2016,05,25,10,31,17.20
2016,05,25,10,32,17.20
2016,05,25,10,33,17.20
2016,05,25,10,34,17.20
2016,05,25,10,35,17.20
2016,05,25,10,36,17.20
2016,05,25,10,37,17.20
2016,05,25,10,38,17.10
2016,05,25,10,39,17.10
2016,05,25,10,40,17.00
2016,05,25,10,41,17.00
2016,05,25,10,42,16.90
2016,05,25,10,43,16.90
2016,05,25,10,44,16.90
2016,05,25,10,45,16.90
2016,05,25,10,46,16.90
2016,05,25,10,47,16.90
2016,05,25,10,48,17.00
2016,05,25,10,49,17.10
2016,05,25,10,50,17.20
2016,05,25,10,51,17.30
2016,05,25,10,52,17.40
2016,05,25,10,53,17.50
2016,05,25,10,54,17.50
2016,05,25,10,55,17.60
2016,05,25,10,56,17.70
2016,05,25,10,57,17.70
2016,05,25,10,58,17.80
2016,05,25,10,59,17.80
2016,05,25,11,00,17.80
2016,05,25,11,01,17.80
2016,05,25,11,02,17.80
2016,05,25,11,03,17.80
2016,05,25,11,04,17.80
2016,05,25,11,05,17.70
2016,05,25,11,06,17.70
2016,05,25,11,07,17.60
2016,05,25,11,08,17.50
2016,05,25,11,09,17.50
2016,05,25,11,10,17.40
2016,05,25,11,11,17.40
2016,05,25,11,12,17.40
2016,05,25,11,13,17.30
2016,05,25,11,14,17.20
2016,05,25,11,15,17.10
2016,05,25,11,16,17.00
2016,05,25,11,17,16.90
2016,05,25,11,18,16.90
2016,05,25,11,19,16.80
2016,05,25,11,20,16.80
2016,05,25,11,21,16.80
2016,05,25,11,22,16.80
2016,05,25,11,23,16.80
2016,05,25,11,24,16.70
2016,05,25,11,25,16.70
2016,05,25,11,26,16.80
2016,05,25,11,27,16.80
2016,05,25,11,28,16.80
2016,05,25,11,29,16.80
2016,05,25,11,30,16.80
2016,05,25,11,31,16.90
2016,05,25,11,32,16.80
2016,05,25,11,33,16.80
2016,05,25,11,34,16.80
2016,05,25,11,35,16.70
2016,05,25,11,36,16.70
2016,05,25,11,37,16.70
2016,05,25,11,38,16.70
2016,05,25,11,39,16.70
2016,05,25,11,40,16.70
2016,05,25,11,41,16.60
2016,05,25,11,42,16.60
2016,05,25,11,43,16.60
2016,05,25,11,44,16.60
2016,05,25,11,45,16.60
2016,05,25,11,46,16.70
2016,05,25,11,47,16.80
2016,05,25,11,48,16.80
2016,05,25,11,49,16.80
2016,05,25,11,50,16.80
2016,05,25,11,51,16.80
2016,05,25,11,52,16.70
2016,05,25,11,53,16.70
2016,05,25,11,54,16.70
2016,05,25,11,55,16.70
2016,05,25,11,56,16.60
2016,05,25,11,57,16.60
2016,05,25,11,58,16.60
2016,05,25,11,59,16.60
2016,05,25,12,00,16.60
2016,05,25,12,01,16.60
2016,05,25,12,02,16.60
2016,05,25,12,03,16.60
2016,05,25,12,04,16.60
2016,05,25,12,05,16.70
2016,05,25,12,06,16.70
2016,05,25,12,07,16.80
2016,05,25,12,08,16.80
2016,05,25,12,09,16.80
2016,05,25,12,10,16.80
2016,05,25,12,11,16.80
2016,05,25,12,12,16.80
2016,05,25,12,13,16.90
2016,05,25,12,14,17.00
2016,05,25,12,15,17.00
2016,05,25,12,16,17.10
2016,05,25,12,17,17.10
2016,05,25,12,18,17.10
2016,05,25,12,19,17.10
2016,05,25,12,20,17.20
2016,05,25,12,21,17.30
2016,05,25,12,22,17.30
2016,05,25,12,23,17.40
2016,05,25,12,24,17.40
2016,05,25,12,25,17.40
2016,05,25,12,26,17.30
2016,05,25,12,27,17.30
2016,05,25,12,28,17.30
2016,05,25,12,29,17.30
2016,05,25,12,30,17.30
2016,05,25,12,31,17.40
2016,05,25,12,32,17.40
2016,05,25,12,33,17.40
2016,05,25,12,34,17.40
2016,05,25,12,35,17.40
2016,05,25,12,36,17.40
2016,05,25,12,37,17.40
2016,05,25,12,38,17.40
2016,05,25,12,39,17.40
2016,05,25,12,40,17.40
2016,05,25,12,41,17.40
2016,05,25,12,42,17.40
2016,05,25,12,43,17.30
2016,05,25,12,44,17.30
2016,05,25,12,45,17.20
2016,05,25,12,46,17.20
2016,05,25,12,47,17.20
2016,05,25,12,48,17.20
2016,05,25,12,49,17.10
2016,05,25,12,50,17.10
2016,05,25,12,51,17.10
2016,05,25,12,52,17.10
2016,05,25,12,53,17.20
2016,05,25,12,54,17.20
2016,05,25,12,55,17.20
2016,05,25,12,56,17.20
2016,05,25,12,57,17.20
2016,05,25,12,58,17.20
2016,05,25,12,59,17.20
2016,05,25,13,00,17.20
2016,05,25,13,01,17.30
2016,05,25,13,02,17.20
2016,05,25,13,03,17.20
2016,05,25,13,04,17.20
2016,05,25,13,05,17.20
2016,05,25,13,06,17.20
2016,05,25,13,07,17.20
2016,05,25,13,08,17.20
2016,05,25,13,09,17.20
2016,05,25,13,10,17.20
2016,05,25,13,11,17.20
2016,05,25,13,12,17.20
2016,05,25,13,13,17.10
2016,05,25,13,14,17.10
2016,05,25,13,15,17.00
2016,05,25,13,16,16.90
2016,05,25,13,17,16.80
2016,05,25,13,18,16.80
2016,05,25,13,19,16.70
2016,05,25,13,20,16.70
2016,05,25,13,21,16.70
2016,05,25,13,22,16.70
2016,05,25,13,23,16.70
2016,05,25,13,24,16.60
2016,05,25,13,25,16.60
2016,05,25,13,26,16.60
2016,05,25,13,27,16.60
2016,05,25,13,28,16.60
2016,05,25,13,29,16.70
2016,05,25,13,30,16.70
2016,05,25,13,31,16.80
2016,05,25,13,32,16.80
2016,05,25,13,33,16.80
2016,05,25,13,34,16.80
2016,05,25,13,35,16.80
2016,05,25,13,36,16.90
2016,05,25,13,37,16.90
2016,05,25,13,38,16.90
2016,05,25,13,39,16.90
2016,05,25,13,40,17.00
2016,05,25,13,41,17.00
2016,05,25,13,42,17.10
2016,05,25,13,43,17.00
2016,05,25,13,44,17.00
2016,05,25,13,45,16.90
2016,05,25,13,46,16.90
2016,05,25,13,47,16.90
2016,05,25,13,48,16.80
2016,05,25,13,49,16.80
2016,05,25,13,50,16.80
2016,05,25,13,51,16.90
2016,05,25,13,52,17.00
2016,05,25,13,53,17.00
2016,05,25,13,54,17.10
2016,05,25,13,55,17.20
2016,05,25,13,56,17.30
2016,05,25,13,57,17.40
2016,05,25,13,58,17.50
2016,05,25,13,59,17.60
2016,05,25,14,00,17.70
2016,05,25,14,01,17.70
2016,05,25,14,02,17.80
2016,05,25,14,03,17.80
2016,05,25,14,04,17.80
2016,05,25,14,05,17.80
2016,05,25,14,06,17.90
2016,05,25,14,07,17.90
2016,05,25,14,08,17.80
2016,05,25,14,09,17.80
2016,05,25,14,10,17.70
2016,05,25,14,11,17.70
2016,05,25,14,12,17.60
2016,05,25,14,13,17.60
2016,05,25,14,14,17.60
2016,05,25,14,15,17.50
2016,05,25,14,16,17.50
2016,05,25,14,17,17.50
2016,05,25,14,18,17.50
2016,05,25,14,19,17.40
2016,05,25,14,20,17.40
2016,05,25,14,21,17.40
2016,05,25,14,22,17.40
2016,05,25,14,23,17.50
2016,05,25,14,24,17.50
2016,05,25,14,25,17.60
2016,05,25,14,26,17.60
2016,05,25,14,27,17.70
2016,05,25,14,28,17.70
2016,05,25,14,29,17.70
2016,05,25,14,30,17.70
2016,05,25,14,31,17.70
2016,05,25,14,32,17.70
2016,05,25,14,33,17.60
2016,05,25,14,34,17.60
2016,05,25,14,35,17.50
2016,05,25,14,36,17.50
2016,05,25,14,37,17.40
2016,05,25,14,38,17.30
2016,05,25,14,39,17.20
2016,05,25,14,40,17.10
2016,05,25,14,41,17.00
2016,05,25,14,42,16.80
2016,05,25,14,43,16.70
2016,05,25,14,44,16.70
2016,05,25,14,45,16.60
2016,05,25,14,46,16.50
2016,05,25,14,47,16.50
2016,05,25,14,48,16.40
2016,05,25,14,49,16.40
2016,05,25,14,50,16.30
2016,05,25,14,51,16.30
2016,05,25,14,52,16.40
2016,05,25,14,53,16.40
2016,05,25,14,54,16.40
2016,05,25,14,55,16.50
2016,05,25,14,56,16.60
2016,05,25,14,57,16.60
2016,05,25,14,58,16.60
2016,05,25,14,59,16.60
2016,05,25,15,00,16.70
2016,05,25,15,01,16.70
2016,05,25,15,02,16.70
2016,05,25,15,03,16.70
2016,05,25,15,04,16.70
2016,05,25,15,05,16.60
2016,05,25,15,06,16.60
2016,05,25,15,07,16.70
2016,05,25,15,08,16.70
2016,05,25,15,09,16.70
2016,05,25,15,10,16.80
2016,05,25,15,11,16.80
2016,05,25,15,12,16.80
2016,05,25,15,13,16.90
2016,05,25,15,14,16.90
2016,05,25,15,15,16.90
2016,05,25,15,16,16.90
2016,05,25,15,17,16.90
2016,05,25,15,18,16.80
2016,05,25,15,19,16.80
2016,05,25,15,20,16.70
2016,05,25,15,21,16.70
2016,05,25,15,22,16.60
2016,05,25,15,23,16.60
2016,05,25,15,24,16.70
2016,05,25,15,25,16.70
2016,05,25,15,26,16.70
2016,05,25,15,27,16.70
2016,05,25,15,28,16.80
2016,05,25,15,29,16.80
2016,05,25,15,30,16.70
2016,05,25,15,31,16.70
2016,05,25,15,32,16.60
2016,05,25,15,33,16.60
2016,05,25,15,34,16.60
2016,05,25,15,35,16.50
2016,05,25,15,36,16.50
2016,05,25,15,37,16.50
2016,05,25,15,38,16.50
2016,05,25,15,39,16.40
2016,05,25,15,40,16.40
2016,05,25,15,41,16.40
2016,05,25,15,42,16.40
2016,05,25,15,43,16.30
2016,05,25,15,44,16.30
2016,05,25,15,45,16.30
2016,05,25,15,46,16.30
2016,05,25,15,47,16.40
2016,05,25,15,48,16.40
2016,05,25,15,49,16.40
2016,05,25,15,50,16.50
2016,05,25,15,51,16.50
2016,05,25,15,52,16.50
2016,05,25,15,53,16.40
2016,05,25,15,54,16.40
2016,05,25,15,55,16.40
2016,05,25,15,56,16.40
2016,05,25,15,57,16.40
2016,05,25,15,58,16.40
2016,05,25,15,59,16.40
2016,05,25,16,00,16.40
2016,05,25,16,01,16.40
2016,05,25,16,02,16.40
2016,05,25,16,03,16.40
2016,05,25,16,04,16.40
2016,05,25,16,05,16.50
2016,05,25,16,06,16.50
2016,05,25,16,07,16.60
2016,05,25,16,08,16.70
2016,05,25,16,09,16.80
2016,05,25,16,10,16.80
2016,05,25,16,11,16.80
2016,05,25,16,12,16.80
2016,05,25,16,13,16.80
2016,05,25,16,14,16.80
2016,05,25,16,15,16.70
2016,05,25,16,16,16.60
2016,05,25,16,17,16.60
2016,05,25,16,18,16.50
2016,05,25,16,19,16.40
2016,05,25,16,20,16.40
2016,05,25,16,21,16.40
2016,05,25,16,22,16.40
2016,05,25,16,23,16.40
2016,05,25,16,24,16.40
2016,05,25,16,25,16.40
2016,05,25,16,26,16.40
2016,05,25,16,27,16.30
2016,05,25,16,28,16.30
2016,05,25,16,29,16.30
2016,05,25,16,30,16.30
2016,05,25,16,31,16.20
2016,05,25,16,32,16.20
2016,05,25,16,33,16.20
2016,05,25,16,34,16.20
2016,05,25,16,35,16.10
2016,05,25,16,36,16.10
2016,05,25,16,37,16.00
2016,05,25,16,38,15.90
2016,05,25,16,39,15.90
2016,05,25,16,40,15.80
2016,05,25,16,41,15.80
2016,05,25,16,42,15.80
2016,05,25,16,43,15.80
2016,05,25,16,44,15.80
2016,05,25,16,45,15.80
2016,05,25,16,46,15.80
2016,05,25,16,47,15.80
2016,05,25,16,48,15.80
2016,05,25,16,49,15.80
2016,05,25,16,50,15.80
2016,05,25,16,51,15.90
2016,05,25,16,52,15.90
2016,05,25,16,53,16.00
2016,05,25,16,54,16.10
2016,05,25,16,55,16.10
2016,05,25,16,56,16.20
2016,05,25,16,57,16.20
2016,05,25,16,58,16.30
2016,05,25,16,59,16.30
2016,05,25,17,00,16.40
2016,05,25,17,01,16.50
2016,05,25,17,02,16.50
2016,05,25,17,03,16.50
2016,05,25,17,04,16.60
2016,05,25,17,05,16.60
2016,05,25,17,06,16.50
2016,05,25,17,07,16.50
2016,05,25,17,08,16.50
2016,05,25,17,09,16.60
2016,05,25,17,10,16.50
2016,05,25,17,11,16.50
2016,05,25,17,12,16.50
2016,05,25,17,13,16.50
2016,05,25,17,14,16.50
2016,05,25,17,15,16.50
2016,05,25,17,16,16.50
2016,05,25,17,17,16.50
2016,05,25,17,18,16.50
2016,05,25,17,19,16.40
2016,05,25,17,20,16.40
2016,05,25,17,21,16.50
2016,05,25,17,22,16.50